Back to catalog

JILIN-01 KUANFU 02B 6

AliveScienceSSO
NORAD 61194·PAYLOAD·🇨🇳 China

Launched Sep 20, 2024 from Taiyuan Satellite Launch Center

Loading…

Next Passes (next 24 hours)

TLE

FreshSource: Space-Track

Epoch: Sep 14, 2026, 14:18 UTC

1 61194U 24169F   26257.59596471  .00003341  00000-0  21247-3 0  9991
2 61194  97.5531 345.7845 0016702  20.6451 339.5449 15.09389661109323

Track JILIN-01 KUANFU 02B 6 in real time with AllMySat

Download on the App Store